Richmond, TX

10:52 AM CDT on September 28, 2016 (GMT -0500)
Sugar Land Municipal-Hull

Weather History for KSGR - April, 2014

Change the Weather History Date:

Tuesday, April 29, 2014

  Actual Average Record
Temperature  
Mean Temperature 74 °F -  
Max Temperature 84 °F 83 °F 95 °F (1948)
Min Temperature 64 °F 63 °F 49 °F (1965)
Cooling Degree Days 9    
Growing Degree Days 24 (Base 50)    
Moisture  
Dew Point 63 °F    
Average Humidity 73    
Maximum Humidity 97    
Minimum Humidity 27    
Precipitation  
Precipitation 0.00 in - - ()
Sea Level Pressure  
Sea Level Pressure 29.70 in    
Wind  
Wind Speed 8 mph (WNW)    
Max Wind Speed 20 mph    
Max Gust Speed 30 mph    
Visibility 10 miles    
Events Rain    
Averages and records for this station are not official NWS values.
T = Trace of Precipitation, MM = Missing Value Source: NWS Daily Summary

Daily Weather History Graph

Daily Weather History Graph

Search for Another Location

Airport or City:

Trip Planner

Search our weather history database for the weather conditions in past years. The results will help you decide how hot, cold, wet, or windy it might be!

Date:

Astronomy

Apr. 29, 2014 Rise Set
Actual Time 6:42 AM CDT 7:58 PM CDT
Civil Twilight 6:16 AM CDT 8:23 PM CDT
Nautical Twilight 5:47 AM CDT 8:53 PM CDT
Astronomical Twilight 5:16 AM CDT 9:24 PM CDT
Moon 7:00 AM CDT (4/29) 8:37 PM CDT (4/29)
Length of Visible Light 14h 06m
Length of Day
13h 16m
New Moon, 0% of the Moon is Illuminated
Apr 29
New Moon
May 6
First Quarter
May 14
Full
May 21
Last Quarter
May 28
New

Hourly Weather History & Observations

Time (CDT) Temp. Heat Index Dew Point Humidity Pressure Visibility Wind Dir Wind Speed Gust Speed Precip Events Conditions
12:07 AM 71.1 °F - 69.1 °F 93% 29.65 in 10.0 mi SSE 6.9 mph - N/A   Mostly Cloudy
12:21 AM 71.1 °F - 70.0 °F 96% 29.64 in 10.0 mi South 10.4 mph - 0.00 in Rain Light Rain
12:53 AM 70.0 °F - 69.1 °F 97% 29.64 in 10.0 mi SSE 5.8 mph - 0.00 in   Overcast
1:09 AM 69.1 °F - 68.0 °F 96% 29.63 in 10.0 mi South 5.8 mph - N/A   Scattered Clouds
1:53 AM 69.1 °F - 66.9 °F 93% 29.63 in 10.0 mi SSE 5.8 mph - N/A   Clear
2:53 AM 68.0 °F - 66.0 °F 93% 29.61 in 10.0 mi South 4.6 mph - 0.00 in Rain Light Rain
3:03 AM 69.1 °F - 66.9 °F 93% 29.60 in 10.0 mi SE 4.6 mph - 0.00 in Rain Light Rain
3:18 AM 70.0 °F - 69.1 °F 97% 29.60 in 10.0 mi SSE 8.1 mph - 0.00 in   Overcast
3:49 AM 71.6 °F - 69.8 °F 94% 29.62 in 10.0 mi South 8.1 mph - 0.00 in Rain Light Rain
3:53 AM 71.1 °F - 69.1 °F 93% 29.62 in 10.0 mi South 9.2 mph - 0.00 in Rain Light Rain
4:07 AM 71.1 °F - 69.1 °F 93% 29.62 in 10.0 mi South 9.2 mph - 0.00 in Rain Light Rain
4:53 AM 72.0 °F - 70.0 °F 93% 29.64 in 10.0 mi SSW 4.6 mph - 0.00 in Rain Light Rain
5:53 AM 72.0 °F - 70.0 °F 93% 29.64 in 10.0 mi SW 5.8 mph - 0.00 in   Overcast
6:53 AM 72.0 °F - 70.0 °F 93% 29.65 in 10.0 mi SSW 5.8 mph - 0.00 in   Overcast
7:53 AM 73.0 °F - 70.0 °F 90% 29.69 in 10.0 mi NNW 6.9 mph - N/A   Overcast
8:11 AM 73.0 °F - 71.1 °F 93% 29.69 in 10.0 mi NW 8.1 mph - N/A   Overcast
8:18 AM 73.9 °F - 71.1 °F 91% 29.69 in 10.0 mi West 4.6 mph - N/A   Overcast
8:33 AM 73.9 °F - 70.0 °F 87% 29.70 in 10.0 mi NW 6.9 mph - N/A   Overcast
8:44 AM 73.9 °F - 71.1 °F 91% 29.70 in 10.0 mi NW 5.8 mph - N/A   Overcast
8:53 AM 73.9 °F - 70.0 °F 87% 29.71 in 10.0 mi NW 5.8 mph - N/A   Overcast
9:20 AM 75.0 °F - 70.0 °F 84% 29.71 in 10.0 mi WNW 6.9 mph - N/A   Overcast
9:53 AM 75.0 °F - 69.1 °F 82% 29.72 in 10.0 mi NW 11.5 mph - N/A   Overcast
10:42 AM 78.1 °F - 68.0 °F 71% 29.71 in 10.0 mi Calm Calm - N/A   Scattered Clouds
10:53 AM 79.0 °F - 68.0 °F 69% 29.72 in 10.0 mi WSW 6.9 mph - N/A   Clear
11:53 AM 84.0 °F 86.3 °F 66.0 °F 55% 29.73 in 10.0 mi NNW 13.8 mph 19.6 mph N/A   Scattered Clouds
12:53 PM 82.9 °F 81.8 °F 53.1 °F 36% 29.73 in 10.0 mi NNW 18.4 mph 26.5 mph N/A   Clear
1:53 PM 84.0 °F - 51.1 °F 32% 29.73 in 10.0 mi North 19.6 mph 29.9 mph N/A   Clear
2:53 PM 84.9 °F - 51.1 °F 31% 29.74 in 10.0 mi North 19.6 mph 26.5 mph N/A   Clear
5:53 PM 82.9 °F - 46.0 °F 27% 29.75 in 10.0 mi North 13.8 mph 23.0 mph N/A   Clear
6:53 PM 80.1 °F - 44.1 °F 28% 29.77 in 10.0 mi North 15.0 mph - N/A   Clear
7:53 PM 75.0 °F - 41.0 °F 29% 29.81 in 10.0 mi NNW 10.4 mph - N/A   Clear
8:53 PM 71.1 °F - 42.1 °F 35% 29.84 in 10.0 mi North 5.8 mph - N/A   Clear
9:53 PM 68.0 °F - 45.0 °F 43% 29.87 in 10.0 mi North 6.9 mph - N/A   Clear
10:53 PM 64.0 °F - 45.0 °F 50% 29.90 in 10.0 mi North 6.9 mph - N/A   Clear
11:53 PM 66.0 °F - 43.0 °F 43% 29.93 in 10.0 mi North 9.2 mph - N/A   Clear